Home   Weather   Cookeville   Past weeks
Flag for USA

Past Weather in Cookeville, Tennessee, USA — Yesterday and Last 2 Weeks

Now
71 °F

Mostly cloudy.


Feels Like: 75 °F
Forecast: 77 / 59 °F
Wind: 13 mph from Northeast

Location: Crossville Memorial Airport

Current Time: Jul 23, 2019 at 12:58:39 pm

Latest Report: Jul 23, 2019 at 11:53 am


Visibility: 10 mi

Pressure: 29.99 "Hg

Humidity: 68%

Dew Point: 60 °F

Location of CookevilleLocation

Past Weather in Cookeville — Graph

°F

Cookeville Temperature Yesterday

Maximum temperature yesterday: 82 °F (at 2:28 pm)
Minimum temperature yesterday: 69 °F (at 11:53 pm)
Average temperature yesterday: 73 °F

High & Low Weather Summary for the Past Weeks

 TemperatureHumidityPressure
High87 °F (Jul 9, 1:53 pm)97% (Jul 11, 1:53 am)30.24 "Hg (Jul 11, 1:53 am)
Low63 °F (Jul 23, 5:53 am)49% (Jul 9, 2:53 pm)29.87 "Hg (Jul 11, 5:53 pm)
Average74 °F84%30.04 "Hg
* Reported Jul 8 11:53 am — Jul 23 11:38 am, Cookeville. Weather by CustomWeather, © 2019

Note: Actual official high and low records may vary slightly from our data, if they occured in-between our weather recording intervals... More about our weather records

Advertising

Cookeville Weather History for the Previous 24 Hours

Scroll right to see more
 ConditionsComfort  
Time TempWeatherWind HumidityBarometerVisibility
11:38 am
Tue, Jul 23
69 °FMore clouds than sun.10 mph70%30.05 "Hg10 mi
11:09 am70 °FBroken clouds.14 mph71%30.05 "Hg10 mi
10:53 am68 °FBroken clouds.9 mph76%30.00 "Hg10 mi
10:19 am66 °FMostly cloudy.13 mph84%30.05 "Hg10 mi
9:53 am66 °FMostly cloudy.15 mph84%29.99 "Hg10 mi
8:53 am65 °FOvercast.8 mph87%29.97 "Hg10 mi
7:53 am64 °FMostly cloudy.8 mph94%29.97 "Hg10 mi
6:53 am63 °FRain. Fog.8 mph97%29.95 "Hg3 mi
6:15 am63 °FHeavy rain. Fog.7 mph97%29.99 "Hg1 mi
5:53 am63 °FHeavy rain. Fog.9 mph93%29.93 "Hg2 mi
5:11 am64 °FHeavy rain. Fog.8 mph94%29.96 "Hg3 mi
5:01 am64 °FHeavy rain. Fog.8 mph94%29.96 "Hg2 mi
4:33 am65 °FRain. Fog.9 mph94%29.95 "Hg4 mi
4:20 am65 °FHeavy rain. Fog.13 mph94%29.95 "Hg2 mi
3:53 am66 °FLight rain. Fog.10 mph93%29.89 "Hg4 mi
3:28 am68 °FLight rain. Fog.10 mph93%29.95 "Hg5 mi
2:53 am68 °FLow clouds.5 mph93%29.89 "Hg10 mi
2:08 am68 °FLight rain. Low clouds.3 mph96%29.95 "Hg10 mi
1:53 am68 °FMostly cloudy.6 mph96%29.89 "Hg10 mi
1:28 am68 °FLow clouds.3 mph93%29.96 "Hg10 mi
1:00 am69 °FLight rain. Fog.3 mph90%29.97 "Hg5 mi
12:25 am69 °FMostly cloudy.No wind96%29.98 "Hg10 mi
11:53 pm
Mon, Jul 22
69 °FMostly cloudy.No wind96%29.93 "Hg10 mi
10:53 pm70 °FMostly cloudy.No wind93%29.93 "Hg10 mi
10:39 pm70 °FMostly cloudy.No wind93%29.99 "Hg10 mi
9:53 pm70 °FLow clouds.No wind93%29.94 "Hg10 mi
9:25 pm70 °FLow clouds.3 mph93%30.00 "Hg10 mi
8:53 pm70 °FMostly cloudy.No wind93%29.93 "Hg10 mi
8:20 pm70 °FLight rain. Mostly cloudy.No wind93%30.00 "Hg10 mi
8:09 pm70 °FLight rain. Overcast.No wind93%29.99 "Hg8 mi
7:53 pm70 °FThundershowers. Fog.No wind93%29.93 "Hg4 mi
6:53 pm71 °FPartly cloudy.3 mph90%29.92 "Hg10 mi
6:17 pm71 °FCloudy.No wind87%29.98 "Hg10 mi
6:02 pm71 °FThundershowers. Mostly cloudy.No wind87%29.98 "Hg10 mi
5:53 pm71 °FLight rain. Mostly cloudy.6 mph87%29.92 "Hg7 mi
5:38 pm71 °FThunderstorms. Cloudy.8 mph93%29.99 "Hg7 mi
5:22 pm73 °FStrong thunderstorms. Fog.6 mph88%29.98 "Hg1 mi
5:07 pm74 °FThunderstorms. Broken clouds.6 mph88%29.97 "Hg10 mi
4:53 pm75 °FPartly sunny.7 mph85%29.90 "Hg10 mi
4:02 pm73 °FLight rain. Fog.8 mph88%29.98 "Hg5 mi
3:02 pm77 °FThunderstorms. Cloudy.5 mph79%29.98 "Hg10 mi
2:53 pm80 °FThundershowers. Cloudy.No wind71%29.91 "Hg10 mi
2:28 pm82 °FThundershowers. Partly sunny.9 mph65%29.98 "Hg10 mi
2:17 pm79 °FThundershowers. Mostly cloudy.6 mph72%29.98 "Hg10 mi
1:53 pm79 °FThundershowers. Broken clouds.3 mph74%29.92 "Hg10 mi
12:53 pm78 °FBroken clouds.8 mph76%29.94 "Hg10 mi
Weather by CustomWeather, © 2019

See weather overview